Weather History for KOMK - September, 2013

Change the Weather History Date:

Wednesday, September 4, 2013

  Actual Average Record
Temperature  
Mean Temperature 73 °F 67 °F  
Max Temperature 83 °F 82 °F 96 °F (1934)
Min Temperature 62 °F 52 °F 33 °F (1948)
Degree Days  
Heating Degree Days 0 2  
Month to date heating degree days 0 8  
Since 1 July heating degree days 0 39  
Cooling Degree Days 8 4  
Month to date cooling degree days 36 17  
Year to date cooling degree days 722 623  
Growing Degree Days 22 (Base 50)    
Moisture  
Dew Point 56 °F    
Average Humidity 59    
Maximum Humidity 78    
Minimum Humidity 40    
Precipitation  
Precipitation 0.26 in 0.02 in 0.40 in (1938)
Month to date precipitation 0.26 0.06  
Year to date precipitation 7.68 9.08  
Sea Level Pressure  
Sea Level Pressure 29.98 in    
Wind  
Wind Speed 13 mph (NNW)    
Max Wind Speed 21 mph    
Max Gust Speed 29 mph    
Visibility 9 miles    
Events Rain , Thunderstorm    
T = Trace of Precipitation, MM = Missing Value Source: NWS Daily Summary

Daily Weather History Graph

Daily Weather History Graph

Search for Another Location

Airport or City:

Trip Planner

Search our weather history database for the weather conditions in past years. The results will help you decide how hot, cold, wet, or windy it might be!

Date:

Astronomy

Sep. 04, 2013 Rise Set
Actual Time 6:20 AM PDT 7:32 PM PDT
Civil Twilight 5:47 AM PDT 8:04 PM PDT
Nautical Twilight 5:08 AM PDT 8:43 PM PDT
Astronomical Twilight 4:27 AM PDT 9:25 PM PDT
Moon 5:37 AM PDT 6:51 PM PDT
Length of Visible Light 14h 17m
Length of Day
13h 12m
Waning Crescent, 1% of the Moon is Illuminated
Sep 4
Waning Crescent
Sep 5
New
Sep 12
First Quarter
Sep 19
Full
Sep 26
Last Quarter

Hourly Weather History & Observations

Time (PDT) Temp. Heat Index Dew Point Humidity Pressure Visibility Wind Dir Wind Speed Gust Speed Precip Events Conditions
12:53 AM 64.0 °F - 48.0 °F 56% 29.95 in 10.0 mi NW 6.9 mph - N/A   Clear
1:53 AM 64.0 °F - 46.0 °F 52% 29.95 in 10.0 mi NNW 6.9 mph - N/A   Clear
2:53 AM 69.1 °F - 45.0 °F 42% 29.95 in 10.0 mi North 10.4 mph - N/A   Scattered Clouds
3:53 AM 68.0 °F - 48.0 °F 49% 29.95 in 10.0 mi NNW 9.2 mph - N/A   Partly Cloudy
4:53 AM 68.0 °F - 50.0 °F 52% 29.95 in 10.0 mi NNW 8.1 mph - N/A   Mostly Cloudy
5:53 AM 69.1 °F - 50.0 °F 51% 29.93 in 10.0 mi NNW 13.8 mph 23.0 mph N/A   Mostly Cloudy
6:12 AM 69.8 °F - 50.0 °F 49% 29.98 in 10.0 mi NW 15.0 mph - N/A Thunderstorm Overcast
6:39 AM 64.4 °F - 55.4 °F 73% 30.03 in - East 11.5 mph - 0.04 in Thunderstorm Thunderstorm
6:42 AM 64.4 °F - 55.4 °F 73% 30.02 in 1.8 mi East 13.8 mph 18.4 mph 0.12 in Rain , Thunderstorm Heavy Thunderstorms and Rain
6:51 AM 62.6 °F - 57.2 °F 82% 30.00 in 1.0 mi NE 18.4 mph 21.9 mph 0.25 in Rain , Thunderstorm Heavy Thunderstorms and Rain
6:53 AM 62.1 °F - 59.0 °F 90% 29.98 in 1.5 mi NNE 13.8 mph 20.7 mph 0.25 in Rain , Thunderstorm Thunderstorms and Rain
6:56 AM 62.6 °F - 59.0 °F 88% 30.00 in 3.0 mi North 13.8 mph 20.7 mph 0.00 in Rain , Thunderstorm Light Thunderstorms and Rain
7:05 AM 62.6 °F - 59.0 °F 88% 30.00 in 10.0 mi NW 15.0 mph 20.7 mph 0.00 in Thunderstorm Overcast
7:25 AM 64.4 °F - 59.0 °F 83% 30.01 in 10.0 mi NW 10.4 mph - 0.00 in   Overcast
7:53 AM 64.0 °F - 59.0 °F 84% 29.99 in 10.0 mi NNW 11.5 mph - 0.00 in   Mostly Cloudy
8:34 AM 66.2 °F - 60.8 °F 83% 30.02 in 10.0 mi NW 11.5 mph - N/A Thunderstorm Mostly Cloudy
8:49 AM 66.2 °F - 60.8 °F 83% 30.02 in 10.0 mi NNW 11.5 mph - 0.01 in Rain Light Rain
8:53 AM 66.9 °F - 60.1 °F 79% 30.00 in 10.0 mi NNW 15.0 mph 21.9 mph 0.01 in Rain Light Rain
9:53 AM 68.0 °F - 60.1 °F 76% 30.01 in 10.0 mi NNW 16.1 mph 23.0 mph 0.00 in   Scattered Clouds
10:53 AM 72.0 °F - 59.0 °F 64% 30.02 in 10.0 mi North 17.3 mph 23.0 mph N/A   Mostly Cloudy
11:53 AM 75.0 °F - 59.0 °F 57% 30.01 in 10.0 mi North 12.7 mph 24.2 mph N/A   Clear
12:53 PM 78.1 °F - 57.9 °F 50% 29.99 in 10.0 mi North 18.4 mph 28.8 mph N/A   Mostly Cloudy
1:53 PM 78.1 °F - 57.9 °F 50% 29.98 in 10.0 mi North 16.1 mph 26.5 mph N/A   Partly Cloudy
2:53 PM 81.0 °F 81.1 °F 57.9 °F 45% 29.97 in 10.0 mi North 16.1 mph 23.0 mph N/A   Clear
3:53 PM 82.9 °F 82.6 °F 57.9 °F 42% 29.95 in 10.0 mi North 18.4 mph 23.0 mph N/A   Clear
4:53 PM 81.0 °F 81.1 °F 57.9 °F 45% 29.93 in 10.0 mi North 15.0 mph 21.9 mph N/A   Clear
5:53 PM 80.1 °F 80.6 °F 57.9 °F 47% 29.92 in 10.0 mi North 12.7 mph 21.9 mph N/A   Clear
6:53 PM 75.0 °F - 57.9 °F 55% 29.91 in 10.0 mi North 15.0 mph 21.9 mph N/A   Clear
7:53 PM 72.0 °F - 57.9 °F 61% 29.93 in 10.0 mi NNW 13.8 mph - N/A   Clear
8:53 PM 70.0 °F - 57.9 °F 65% 29.95 in 10.0 mi NW 12.7 mph - N/A   Clear
9:53 PM 70.0 °F - 57.9 °F 65% 29.96 in 10.0 mi NNW 12.7 mph - N/A   Clear
10:53 PM 69.1 °F - 57.9 °F 68% 29.97 in 10.0 mi North 13.8 mph 20.7 mph N/A   Clear
11:53 PM 66.9 °F - 59.0 °F 76% 29.96 in 10.0 mi NNW 11.5 mph - N/A   Clear